Back to catalog

SL-12 R/B(2)

AliveGEO
NORAD 25339·ROCKET BODY·🇷🇺 Russia

Launched Sep 6, 1996 from Baikonur Cosmodrome

Loading…

TLE

FreshSource: Space-Track

Epoch: Sep 14, 2026, 17:46 UTC

1 25339U 96053D   26257.74034744 -.00000126  00000-0  00000-0 0  9990
2 25339  15.1903   2.5075 0052724 315.9260  56.3496  0.98095168101526

Track SL-12 R/B(2) in real time with AllMySat

Download on the App Store